Weather in Vesely

Russia / Irkutsk Oblast     55°56′05″N   99°35′20″E
temp.,
°C
wind,
m/s
gust,
m/s
humid.,
%
clouds,
%
prec.,
mm/h
press.,
hPa
HPBL,
m
13 april, tue
tue1323:00+1ssw31199100 0.6 1023809
02:00+1sw31098100 1.4 1020661
05:00+1wsw41198100 0.9 1017861
08:00+1wsw41198100 3.3 1016782
11:00+1w51397100 1.4 1014764
14:00+1wnw51297100 2.7 1016705
17:00+3wnw510775 0.4 10171392
20:00+1wnw410825 0.5 1020483
14 april, wed
wed1423:00−1w3108997 0.0 1021427
02:00−3w399437 0.0 1022374
05:00−2wsw4119495 0.1 1021608
08:00−1wsw51190100 0.2 1020981
11:00+1wnw51075100 0.6 10201346
14:00+3wnw61062100 1.2 10191854
17:00+3w51172100 0.6 10171522
20:000w41088100 0.9 1015939
15 april, thu
thu1523:00−1w1698100 0.8 1014433
02:00−1w0299100 2.7 1012155
05:00−2wnw2695100 0.3 1013179
08:00−1wnw388720 0.3 1017615
11:00+1nw5865100 0.3 10191697
14:00+2wnw6962100 0.8 10201974
17:00+2wnw5967100 0.4 10201617
20:000w3778100 0.4 1020209
16 april, fri
fri1623:00−1sw3109085 0.0 1019430
02:00+1wsw41188100 0.0 1017961
05:00+2wsw61585100 0.1 10141106
08:00+3wsw6158799 0.1 1013995
11:00+6wsw7158097 0.0 10121119
14:00+8wsw71676100 0.0 10111307
17:00+9wsw61476100 0.1 10101527
20:00+7wsw5138047 0.1 1009706
17 april, sat
sat1723:00+4sw5158089 0.0 1008734
02:00+3sw41386100 0.0 1007406
05:00+5wsw4147997 0.0 1006728
08:00+4wnw3793100 0.0 1006583
11:00+1nnw1396100 0.1 1008283
14:00+2nnw2396100 1.1 1008270
17:00+1nne3697100 0.8 1007412
20:00−1n4797100 2.4 1008525